EW9774 Weather Reports


time (UTC)temp
F
wind
direction
speed
knots
gust
knots
rain 1hr
in
rain 24hr
in
rain mn
in
humidity
%
barometer
mb
20260503203057 85 95 4.3 9.6 0.00 0.00 0.00 30 1013.1
20260503201531 84 74 1.7 5.2 0.00 0.00 0.00 35 1013.3
20260503200033 83 26 2.6 6.1 0.00 0.00 0.00 36 1013.4
20260503194531 83 40 1.7 5.2 0.00 0.00 0.00 38 1013.7
20260503193037 82 35 2.6 5.2 0.00 0.00 0.00 40 1013.8
20260503191529 81 36 2.6 4.3 0.00 0.00 0.00 42 1014.1
20260503190031 80 42 1.7 6.1 0.00 0.00 0.00 46 1014.2
20260503184529 79 8 0.9 4.3 0.00 0.00 0.00 47 1014.3
20260503183028 79 65 0.9 4.3 0.00 0.00 0.00 47 1014.5
20260503181529 77 53 0.9 3.5 0.00 0.00 0.00 46 1014.6
20260503173031 74 71 0.9 2.6 0.00 0.00 0.00 50 1015.1
20260503171530 73 38 0.9 3.5 0.00 0.00 0.00 50 1015.2
20260503140108 49 180 0.9 2.6 0.00 0.00 0.00 94 1015.7
20260503081606 52 179 0.9 3.5 0.00 0.00 0.00 88 1015.2
20260503071645 54 201 0.9 1.7 0.00 0.00 0.00 85 1015.2
20260503054532 56 186 0.9 3.5 0.00 0.00 0.00 82 1015.1
20260503053030 57 180 0.0 1.7 0.00 0.00 0.00 81 1015.1
20260503051531 58 197 0.9 2.6 0.00 0.00 0.00 80 1015.0
20260503044530 59 176 0.9 2.6 0.00 0.00 0.00 77 1014.9
20260503041537 62 227 0.9 5.2 0.00 0.00 0.00 74 1014.3
20260503040039 62 175 0.9 3.5 0.00 0.00 0.00 74 1014.1
20260503033031 63 202 2.6 4.3 0.00 0.00 0.00 75 1013.6
20260503031530 65 92 0.0 3.5 0.00 0.00 0.00 73 1013.2
20260503023146 69 202 1.7 2.6 0.00 0.00 0.00 68 1012.6
20260503021533 71 188 0.0 3.5 0.00 0.00 0.00 66 1012.5
20260503020106 72 53 0.0 0.0 0.00 0.00 0.00 62 1012.4
20260503014529 73 55 0.0 0.9 0.00 0.00 0.00 57 1012.4
20260503013030 75 49 0.0 2.6 0.00 0.00 0.00 60 1012.5
20260503010031 77 360 0.0 1.7 0.00 0.00 0.00 50 1012.4
20260503004532 78 186 0.9 3.5 0.00 0.00 0.00 44 1012.4
20260503001608 79 175 0.9 4.3 0.00 0.00 0.00 40 1012.4
20260503000032 80 181 0.9 4.3 0.00 0.00 0.00 39 1012.5
20260502234531 80 115 1.7 6.1 0.00 0.00 0.00 39 1012.7
20260502233033 80 124 0.9 4.3 0.00 0.00 0.00 40 1013.0
20260502231533 80 27 0.0 3.5 0.00 0.00 0.00 39 1013.1
20260502230033 79 182 0.0 2.6 0.00 0.00 0.00 41 1013.3
20260502224539 80 35 0.9 2.6 0.00 0.00 0.00 41 1013.5
20260502223030 79 344 0.0 3.5 0.00 0.00 0.00 41 1013.8
20260502221529 80 54 0.9 3.5 0.00 0.00 0.00 41 1014.0
20260502214531 78 186 0.9 3.5 0.00 0.00 0.00 50 1014.4
20260502211530 72 70 1.7 5.2 0.00 0.00 0.00 58 1014.8
20260502210030 72 60 1.7 4.3 0.00 0.00 0.00 59 1015.0
20260502204532 71 14 0.9 4.3 0.00 0.00 0.00 64 1015.0